Tracking 31027 objects as of 19-Jul-2025
HD Live streaming from Space Station
objects crossing your sky now

STARLINK-5400

Track STARLINK-5400 now!
10-day predictions
STARLINK-5400 is classified as:


NORAD ID: 54861
Int'l Code: 2022-177AT
Perigee: 565.4 km
Apogee: 567.1 km
Inclination: 43.0 °
Period: 95.8 minutes
Semi major axis: 6937 km
RCS: Unknown
Launch date: December 28, 2022
Source: United States (US)
Launch site: AIR FORCE EASTERN TEST RANGE (AFETR)
Your satellite tracking list
Your tracking list is empty




NASA's NSSDC Master Catalog

Two Line Element Set (TLE):
1 54861U 22177AT  25199.61582046 -.00000363  00000-0 -11767-4 0  9991
2 54861  43.0045 312.2866 0001193 271.3850  88.6856 15.02532442141892
Source of the keplerian elements: AFSPC